Terminal Aerodrome Forecast
Issued by NWS Sioux Falls, SD

Home | Current Version | Previous Version | Graphics & Text | Print | Product List | Glossary Off
Versions: 1 2 3 4 5 6 7 8 9 10 11 12 13 14 15 16 17 18 19 20

000
FTUS43 KFSD 221953 AAB
TAFFSD
TAF AMD
KFSD 221953Z 2220/2318 VRB04KT 2SM -RA BR OVC006
      TEMPO 2220/2223 1SM BR
     FM230100 34007KT 4SM -SN BR OVC006
     FM230900 35012KT 4SM -SN BR OVC008
     FM231600 35014G20KT 3SM -SN BR OVC008=

USA.gov is the U.S. government's official web portal to all federal, state and local government web resources and services.